FENGYUN 1C DEB

Satellite information

Favourite Embed

Satellite Type and Status

DEBRISIN ORBIT

Key statistics

Satellite FENGYUN 1C DEB at a glance.

Uptime

9715

Days in orbit

Revolutions

≈ 14.3

Per day

Orbit

SSO

Sun Synchronous Orbit

Inclination

98.9

Latest

Satellite identification and parameters

Extended collection of information and parameters for FENGYUN 1C DEB.

Object identification

Identified? True

Debris? True

Object name: FENGYUN 1C DEB

International designator: 1999-025AWW

Object number (NORAD): 30860

Object ID (CCSDS): 30860

Country: PEOPLES REPUBLIC OF CHINA (PRC)

Current information (Y/N): Y

RCS size: SMALL

Orbital parameters

Period: 101.018 minutes

Inclination: 98.9043 deg

SMA: 7184.98 km

Apoapsis: 835.755 km

Periapsis: 777.936 km

RAAN: 59.6243 deg

Eccentricy: 0.00402364

Argument of periapsis: 188.8332 deg

Mean anomaly: 171.2144 deg

Mean motion: 14.25490712 rev/day

Mean motion (dot): 0.00005995 rev/day2

B* drag term: 0.0025330631 1/REarth

Two-line elements (TLE)

Creation date: Dec. 12, 2025, 10:14 a.m.

Reference frame: TEME

Reference center: EARTH

Epoch: Dec. 12, 2025, 4:11 a.m. UTC

TLE line 0: 0 FENGYUN 1C DEB

TLE line 1: 1 30860U 99025AWW 25346.17446884 .00005995 00000-0 25331-2 0 9998

TLE line 2: 2 30860 98.9043 59.6243 0040236 188.8332 171.2144 14.25490712965082

Live tracking on map

Real-time ground track for satellite FENGYUN 1C DEB.

In-orbit conjunctions

A list of the most updated potential collisions computed for object FENGYUN 1C DEB.

Target Orbit TCA Probability of collision Miss distance Type
CZ-6A DEB LEO 2025-03-02 17:21:33 0.0001800125 304.0 (m) DEBRIS
SL-12 R/B(2) LEO 2025-02-21 06:22:21 0.0001561807 232.0 (m) ROCKET BODY
COSMOS 1275 DEB LEO 2024-11-15 17:29:03 0.0003624367 334.0 (m) DEBRIS
CZ-6A DEB LEO 2024-11-09 06:00:20 0.001050744 635.0 (m) DEBRIS
NOAA 16 DEB SSO 2024-09-25 02:06:11 0.0003819204 881.0 (m) DEBRIS

Associated space launch

Chinese polar orbiting meteorological satellite

FENGYUN 1C DEB was lifted into orbit during the mission ‘Long March 4B | Feng Yun 1C’, on board a Long March 4B space rocket.

The launch took place on May 10, 1999, 1:33 a.m. from Launch Complex 7.

For more information about the launch, click the button.

Launch to space Long March 4B | Feng Yun 1C
Long March 4B | Feng Yun 1C

Agency: N/A

Status: Launch Successful

Launch date: May 10, 1999, 1:33 a.m. UTC

Rocket: Long March 4B

Launch pad: Launch Complex 7

Location: Taiyuan Satellite Launch Center, People's Republic of China

...

Latest news about this satellite

There are no fresh news available about this satellite. Check back as we update our databases every day.


Newsletter sign-up

Weekly statistics, charts and insights to help you stay on top of the space industry.